Volver al catálogo

CZ-6A DEB

ActivoSSO
NORAD 54445·DEBRIS·🇨🇳 China

Lanzado Nov 11, 2022 desde Taiyuan Satellite Launch Center

Loading…

Próximos Pases (próximas 24 horas)

TLE

ActualizadoSource: Space-Track

Época: Sep 14, 2026, 08:17 UTC

1 54445U 22151FV  26257.34539976  .00000570  00000-0  21841-3 0  9992
2 54445  98.7278 302.0748 0053822  85.3065 275.4263 14.33635665200391

Sigue CZ-6A DEB en tiempo real con AllMySat

Download on the App Store